Location: Crescent
(42.8242°N, 73.7329°W)
Time: 18:07:16
(UTC+00:00)

Injun/Solrad 3 - All Passes

Search period start: 18 February 2026 00:00
Search period end: 28 February 2026 00:00
Orbit: 873 x 983 km, 66.8° (Epoch: 18 February)

Date Brightness Start Highest point End Pass type
(mag) Time Alt. Az. Time Alt. Az. Time Alt. Az.
18 Feb - 01:04:35 10° NNW 01:10:48 88° ENE 01:17:08 10° SSE visible
18 Feb - 02:53:00 10° WNW 02:56:28 16° WSW 02:59:59 10° SW visible
18 Feb - 14:29:59 10° SE 14:33:27 16° ESE 14:36:56 10° ENE daylight
18 Feb - 16:13:19 10° SW 16:19:09 78° WNW 16:25:06 10° NNE daylight
18 Feb - 18:02:47 10° WNW 18:06:38 18° NW 18:10:33 10° N daylight
18 Feb - 23:29:39 10° NNW 23:34:52 28° NE 23:40:10 10° ESE visible
19 Feb - 01:15:41 10° NW 01:21:47 63° WSW 01:28:02 10° SSE visible
19 Feb - 14:39:28 10° SSE 14:44:09 26° ESE 14:48:55 10° NE daylight
19 Feb - 16:24:33 10° SW 16:30:15 53° NW 16:36:04 10° NNE daylight
19 Feb - 18:15:26 10° WNW 18:18:12 13° NNW 18:21:00 10° N daylight
19 Feb - 21:56:21 10° NNE 21:57:50 11° NNE 21:59:19 10° NE daylight
19 Feb - 23:40:27 10° NNW 23:46:10 38° NE 23:52:00 10° ESE visible
20 Feb - 01:26:56 10° NW 01:32:42 42° WSW 01:38:36 10° S visible
20 Feb - 14:49:36 10° S 14:54:58 40° ESE 15:00:26 10° NE daylight
20 Feb - 16:36:05 10° WSW 16:41:27 37° NW 16:46:56 10° NNE daylight
20 Feb - 18:29:15 10° NNW 18:29:51 10° NNW 18:30:28 10° NNW daylight
20 Feb - 22:06:19 10° N 22:09:29 14° NNE 22:12:40 10° ENE daylight
20 Feb - 23:51:19 10° NNW 23:57:23 55° NE 00:03:34 10° SE visible
21 Feb - 01:38:23 10° NW 01:43:32 28° WSW 01:48:46 10° SSW visible
21 Feb - 15:00:08 10° SSW 15:05:51 62° ESE 15:11:42 10° NE daylight
21 Feb - 16:47:53 10° W 16:52:46 26° NW 16:57:44 10° NNE daylight
21 Feb - 22:16:48 10° N 22:21:01 19° NE 22:25:18 10° E daylight
22 Feb - 00:02:17 10° NNW 00:08:29 79° ENE 00:14:50 10° SE visible
22 Feb - 01:50:15 10° WNW 01:54:17 18° WSW 01:58:22 10° SW visible
22 Feb - 13:28:26 10° SE 13:31:16 14° ESE 13:34:06 10° ENE daylight
22 Feb - 15:10:59 10° SSW 15:16:49 88° WNW 15:22:48 10° NNE daylight
22 Feb - 17:00:02 10° W 17:04:10 19° NW 17:08:25 10° N daylight
22 Feb - 22:27:27 10° NNW 22:32:28 25° NE 22:37:34 10° E daylight
23 Feb - 00:13:20 10° NW 00:19:31 72° WSW 00:25:50 10° SSE visible
23 Feb - 02:03:25 10° W 02:04:58 11° W 02:06:30 10° WSW visible
23 Feb - 13:37:34 10° SSE 13:41:57 22° ESE 13:46:23 10° ENE daylight
23 Feb - 15:22:09 10° SW 15:27:53 60° NW 15:33:49 10° NNE daylight
23 Feb - 17:12:31 10° WNW 17:15:42 15° NNW 17:18:56 10° N daylight
23 Feb - 22:38:12 10° NNW 22:43:48 34° NE 22:49:29 10° ESE daylight
24 Feb - 00:24:31 10° NW 00:30:27 48° WSW 00:36:30 10° S visible
24 Feb - 13:47:32 10° S 13:52:43 35° ESE 13:58:00 10° NE daylight
24 Feb - 15:33:34 10° WSW 15:39:04 41° NW 15:44:43 10° NNE daylight
24 Feb - 17:25:39 10° NW 17:27:20 11° NNW 17:29:02 10° N daylight
24 Feb - 21:04:14 10° N 21:06:59 13° NNE 21:09:46 10° ENE daylight
24 Feb - 22:49:03 10° NNW 22:55:03 49° NE 23:01:08 10° SE daylight
25 Feb - 00:35:54 10° NW 00:41:19 32° WSW 00:46:49 10° S visible
25 Feb - 13:57:56 10° S 14:03:34 53° ESE 14:09:20 10° NE daylight
25 Feb - 15:45:17 10° WSW 15:50:21 29° NW 15:55:31 10° NNE daylight
25 Feb - 21:14:38 10° N 21:18:34 17° NE 21:22:34 10° ENE daylight
25 Feb - 22:59:58 10° NNW 23:06:10 70° ENE 23:12:31 10° SE visible
26 Feb - 00:47:36 10° WNW 00:52:05 21° WSW 00:56:39 10° SSW visible
26 Feb - 12:27:11 10° ESE 12:29:05 12° E 12:30:59 10° E daylight
26 Feb - 14:08:42 10° SSW 14:14:31 81° ESE 14:20:30 10° NNE daylight
26 Feb - 15:57:18 10° W 16:01:44 21° NW 16:06:15 10° N daylight
26 Feb - 21:25:14 10° N 21:30:03 23° NE 21:34:55 10° E daylight
26 Feb - 23:11:00 10° NNW 23:17:14 81° WSW 23:23:35 10° SSE visible
27 Feb - 01:00:03 10° WNW 01:02:47 13° WSW 01:05:33 10° SW visible
27 Feb - 12:35:45 10° SSE 12:39:45 19° ESE 12:43:46 10° ENE daylight
27 Feb - 14:19:45 10° SW 14:25:34 68° WNW 14:31:32 10° NNE daylight
27 Feb - 16:09:40 10° WNW 16:13:13 16° NW 16:16:50 10° N daylight
27 Feb - 21:35:58 10° NNW 21:41:25 31° NE 21:46:57 10° ESE daylight
27 Feb - 23:22:09 10° NW 23:28:12 55° WSW 23:34:22 10° S visible
